Weather History for Fitchburg, MA

Change the Weather History Date:

Wednesday, November 16, 2011

  Actual Average (KORH) Record (KORH)
Temperature  
Mean Temperature 52 °F 40 °F  
Max Temperature 62 °F 48 °F 69 °F (1928)
Min Temperature 43 °F 33 °F 5 °F (1933)
Degree Days  
Heating Degree Days 12 25  
Month to date heating degree days 357  
Since 1 July heating degree days 1018  
Cooling Degree Days 0 0  
Month to date cooling degree days 0  
Year to date cooling degree days 471  
Growing Degree Days 2 (Base 50)    
Moisture  
Dew Point 48 °F    
Average Humidity 84    
Maximum Humidity 100    
Minimum Humidity 55    
Precipitation  
Precipitation 0.24 in 0.14 in 2.42 in (1983)
Month to date precipitation 2.25  
Year to date precipitation 42.22  
Sea Level Pressure  
Sea Level Pressure 29.83 in    
Wind  
Wind Speed 1 mph (SSW)    
Max Wind Speed 9 mph    
Max Gust Speed -    
Visibility 8 miles    
Events Rain    
T = Trace of Precipitation, MM = Missing Value Source: NWS Daily Summary

Daily Weather History Graph

Daily Weather History Graph

Search for Another Location

Airport:

Trip Planner

Search our weather history database for the weather conditions in past years. The results will help you decide how hot, cold, wet, or windy it might be!

Date:

Astronomy

Nov. 16, 2011 Rise Set
Actual Time 6:39 AM EST 4:23 PM EST
Civil Twilight 6:08 AM EST 4:54 PM EST
Nautical Twilight 5:34 AM EST 5:28 PM EST
Astronomical Twilight 5:01 AM EST 6:01 PM EST
Moon 9:35 PM EST 11:12 AM EST
Length of Visible Light 10h 45m
Length of Day
9h 44m
Waning Gibbous, 70% of the Moon is Illuminated
Nov 16
Waning Gibbous
Nov 18
Last Quarter
Nov 25
New
Dec 2
First Quarter
Dec 10
Full

Hourly Weather History & Observations

Time (EST) Temp. Windchill Dew Point Humidity Pressure Visibility Wind Dir Wind Speed Gust Speed Precip Events Conditions
12:52 AM 54.0 °F - 37.9 °F 55% 29.97 in 10.0 mi Calm Calm - N/A   Overcast
1:52 AM 48.9 °F - 39.0 °F 69% 29.97 in 10.0 mi Calm Calm - N/A   Clear
2:52 AM 46.0 °F - 37.9 °F 73% 29.96 in 10.0 mi Calm Calm - N/A   Clear
3:52 AM 45.0 °F - 39.0 °F 80% 29.96 in 10.0 mi Calm Calm - N/A   Clear
4:52 AM 43.0 °F - 39.0 °F 86% 29.95 in 10.0 mi Calm Calm - N/A   Clear
5:52 AM 45.0 °F 43.5 °F 39.9 °F 82% 29.96 in 10.0 mi WNW 3.5 mph - N/A   Scattered Clouds
6:52 AM 46.0 °F - 39.0 °F 76% 29.95 in 10.0 mi Calm Calm - N/A   Mostly Cloudy
7:52 AM 48.0 °F - 41.0 °F 77% 29.95 in 10.0 mi Calm Calm - N/A   Overcast
8:21 AM 48.2 °F - 41.0 °F 76% 29.94 in 10.0 mi Calm Calm - N/A   Mostly Cloudy
8:36 AM 50.0 °F - 41.0 °F 71% 29.94 in 10.0 mi Calm Calm - N/A   Mostly Cloudy
8:52 AM 50.0 °F - 41.0 °F 71% 29.95 in 10.0 mi Calm Calm - N/A   Mostly Cloudy
9:52 AM 57.0 °F - 46.0 °F 67% 29.94 in 10.0 mi SE 4.6 mph - N/A   Overcast
11:52 AM 62.1 °F - 48.0 °F 60% 29.84 in 10.0 mi SSE 9.2 mph - N/A   Overcast
12:52 PM 61.0 °F - 48.9 °F 64% 29.83 in 10.0 mi South 6.9 mph - N/A   Overcast
1:52 PM 59.0 °F - 51.1 °F 75% 29.80 in 10.0 mi Calm Calm - 0.00 in Rain Light Rain
2:52 PM 57.0 °F - 53.1 °F 87% 29.79 in 9.0 mi SE 3.5 mph - 0.02 in Rain Light Rain
3:36 PM 55.4 °F - 53.6 °F 94% 29.78 in 8.0 mi SSE 3.5 mph - 0.02 in Rain Light Rain
3:52 PM 55.9 °F - 54.0 °F 93% 29.78 in 5.0 mi Calm Calm - 0.04 in Rain Light Rain
4:52 PM 55.9 °F - 54.0 °F 93% 29.77 in 9.0 mi Calm Calm - 0.04 in Rain Light Rain
5:52 PM 55.0 °F - 54.0 °F 96% 29.73 in 4.0 mi Calm Calm - 0.02 in Rain Light Rain
6:33 PM 55.4 °F - 53.6 °F 94% 29.74 in 4.0 mi Calm Calm - 0.01 in Rain Light Rain
6:42 PM 55.4 °F - 53.6 °F 94% 29.73 in 4.0 mi Calm Calm - 0.01 in Rain Light Rain
6:49 PM 55.4 °F - 53.6 °F 94% 29.74 in 4.0 mi Calm Calm - 0.02 in Rain Light Rain
7:36 PM 55.4 °F - 53.6 °F 94% 29.74 in 2.0 mi Calm Calm - 0.03 in Rain Light Rain
7:43 PM 53.6 °F - 53.6 °F 100% 29.73 in 1.2 mi Calm Calm - 0.03 in Rain Light Rain
7:52 PM 55.0 °F - 53.1 °F 93% 29.74 in 2.5 mi Calm Calm - 0.03 in Rain Light Rain
8:22 PM 55.4 °F - 53.6 °F 94% 29.75 in 3.0 mi NW 3.5 mph - 0.02 in Rain Light Rain
8:41 PM 55.4 °F - 53.6 °F 94% 29.74 in 3.0 mi Calm Calm - 0.05 in Rain Rain
8:52 PM 55.0 °F - 53.1 °F 93% 29.74 in 4.0 mi Calm Calm - 0.05 in Rain Light Rain
9:52 PM 54.0 °F - 52.0 °F 93% 29.75 in 8.0 mi NNW 3.5 mph - 0.02 in Rain Light Rain
10:52 PM 53.1 °F - 52.0 °F 96% 29.72 in 9.0 mi Calm Calm - 0.02 in   Overcast
11:52 PM 53.1 °F - 51.1 °F 93% 29.71 in 10.0 mi NNW 3.5 mph - N/A   Overcast